FW3803 Weather Reports


Display with metric or nautical units.
time (UTC)temp
F
wind
direction
speed
MPH
gust
MPH
rain 1hr
in
rain 24hr
in
rain mn
in
humidity
%
barometer
mb
20260502194516 58 0.0 3.0 0.00 0.00 0.00 47 1022.1
20260502194016 58 135 1.0 2.0 0.00 0.00 0.00 50 1022.2
20260502193516 58 158 1.0 3.0 0.00 0.00 0.00 49 1022.2
20260502193036 58 158 1.0 4.0 0.00 0.00 0.00 50 1022.3
20260502192516 58 158 1.0 4.0 0.00 0.00 0.00 46 1022.3
20260502192016 58 158 1.0 4.0 0.00 0.00 0.00 48 1022.3
20260502191616 58 135 1.0 4.0 0.00 0.00 0.00 47 1022.4
20260502191016 58 158 1.0 3.0 0.00 0.00 0.00 50 1022.6
20260502190516 57 0.0 1.0 0.00 0.00 0.00 47 1022.6
20260502190016 57 0.0 2.0 0.00 0.00 0.00 50 1022.6
20260502185516 58 0.0 3.0 0.00 0.00 0.00 48 1022.6
20260502185016 58 0.0 2.0 0.00 0.00 0.00 50 1022.8
20260502184516 58 0.0 1.0 0.00 0.00 0.00 47 1022.7
20260502184016 58 0.0 2.0 0.00 0.00 0.00 47 1022.7
20260502183516 58 158 1.0 4.0 0.00 0.00 0.00 47 1022.8
20260502182516 57 0.0 2.0 0.00 0.00 0.00 49 1022.7
20260502182016 57 0.0 4.0 0.00 0.00 0.00 49 1022.8
20260502181516 57 338 1.0 5.0 0.00 0.00 0.00 50 1022.9
20260502181016 57 23 1.0 3.0 0.00 0.00 0.00 51 1023.1
20260502180516 57 293 1.0 5.0 0.00 0.00 0.00 53 1023.3
20260502170516 54 0.0 1.0 0.00 0.00 0.00 54 1024.3
20260502164036 55 0.0 2.0 0.00 0.00 0.00 52 1024.3
20260502163516 55 0.0 2.0 0.00 0.00 0.00 53 1024.3
20260502163016 55 0.0 3.0 0.00 0.00 0.00 57 1024.4
20260502162516 54 0.0 2.0 0.00 0.00 0.00 55 1024.5
20260502162016 54 0.0 2.0 0.00 0.00 0.00 54 1024.4
20260502161516 54 0.0 1.0 0.00 0.00 0.00 55 1024.3
20260502161016 54 0.0 4.0 0.00 0.00 0.00 55 1024.3
20260502160536 54 0.0 1.0 0.00 0.00 0.00 57 1024.4
20260502152016 54 0.0 0.0 0.00 0.00 0.00 61 1024.8
20260502151536 54 0.0 4.0 0.00 0.00 0.00 61 1024.7
20260502151016 54 0.0 2.0 0.00 0.00 0.00 62 1024.3
20260502150516 54 0.0 2.0 0.00 0.00 0.00 63 1024.4
20260502130516 53 0.0 1.0 0.00 0.00 0.00 74 1024.1
20260502123516 52 0.0 1.0 0.00 0.00 0.00 79 1023.9
20260502123016 52 0.0 1.0 0.00 0.00 0.00 80 1023.9
20260502122516 52 0.0 3.0 0.00 0.00 0.00 79 1023.8
20260502122016 51 0.0 1.0 0.00 0.00 0.00 82 1023.9
20260502121516 51 0.0 1.0 0.00 0.00 0.00 84 1023.7
20260502121016 51 0.0 0.0 0.00 0.00 0.00 86 1023.5
20260502120515 50 0.0 0.0 0.00 0.00 0.00 87 1023.5
20260502115515 50 0.0 1.0 0.00 0.00 0.00 90 1023.6
20260502115016 49 0.0 0.0 0.00 0.00 0.00 91 1023.4
20260502114516 49 0.0 0.0 0.00 0.00 0.00 92 1023.6
20260502114016 49 0.0 0.0 0.00 0.00 0.00 93 1023.6
20260502113516 49 0.0 0.0 0.00 0.00 0.00 93 1023.6
20260502113016 49 0.0 0.0 0.00 0.00 0.00 93 1023.6
20260502112516 49 0.0 0.0 0.00 0.00 0.00 92 1023.6
20260502112036 49 0.0 0.0 0.00 0.00 0.00 92 1023.5
20260502111516 48 0.0 0.0 0.00 0.00 0.00 92 1023.4
20260502111016 48 0.0 0.0 0.00 0.00 0.00 92 1023.7
20260502110516 48 0.0 0.0 0.00 0.00 0.00 92 1023.6
20260502110016 48 0.0 0.0 0.00 0.00 0.00 92 1023.8
20260502105516 48 0.0 0.0 0.00 0.00 0.00 92 1023.9
20260502105016 48 0.0 0.0 0.00 0.00 0.00 92 1023.8
20260502104516 48 0.0 0.0 0.00 0.00 0.00 92 1023.8
20260502104036 48 0.0 0.0 0.00 0.00 0.00 92 1023.7
20260502103516 48 0.0 0.0 0.00 0.00 0.00 92 1023.6
20260502103016 48 0.0 0.0 0.00 0.00 0.00 92 1023.5
20260502102559 48 0.0 0.0 0.00 0.00 0.00 92 1023.3
20260502102016 48 0.0 0.0 0.00 0.00 0.00 92 1023.3
20260502101516 48 0.0 0.0 0.00 0.00 0.00 92 1023.2
20260502101016 48 0.0 0.0 0.00 0.00 0.00 92 1023.1
20260502100516 48 0.0 0.0 0.00 0.00 0.00 92 1023.0
20260502091516 48 0.0 0.0 0.00 0.00 0.00 91 1022.8
20260502091016 48 0.0 0.0 0.00 0.00 0.00 90 1022.7
20260502090536 48 0.0 0.0 0.00 0.00 0.00 90 1022.8
20260502090156 48 0.0 0.0 0.00 0.00 0.00 90 1022.8
20260502071516 49 0.0 0.0 0.00 0.00 0.00 87 1022.5
20260502071016 50 0.0 0.0 0.00 0.00 0.00 87 1022.4
20260502070516 50 0.0 0.0 0.00 0.00 0.00 87 1022.4
20260502070016 50 0.0 0.0 0.00 0.00 0.00 87 1022.3
20260502065516 50 0.0 0.0 0.00 0.00 0.00 86 1022.5
20260502065015 50 0.0 0.0 0.00 0.00 0.00 86 1022.5
20260502064516 50 0.0 0.0 0.00 0.00 0.00 86 1022.5
20260502064016 50 0.0 0.0 0.00 0.00 0.00 86 1022.5
20260502063516 50 0.0 0.0 0.00 0.00 0.00 87 1022.6
20260502063016 50 0.0 1.0 0.00 0.00 0.00 87 1022.6
20260502062536 50 0.0 0.0 0.00 0.00 0.00 86 1022.5
20260502062036 50 0.0 0.0 0.00 0.00 0.00 85 1022.5
20260502061516 50 0.0 0.0 0.00 0.00 0.00 85 1022.5
20260502061015 51 0.0 0.0 0.00 0.00 0.00 85 1022.7
20260502060516 51 0.0 0.0 0.00 0.00 0.00 84 1022.6
20260502060016 51 0.0 0.0 0.00 0.00 0.00 84 1022.6
20260502055536 51 0.0 0.0 0.00 0.00 0.00 84 1022.6
20260502055016 51 0.0 0.0 0.00 0.00 0.00 84 1022.7
20260502054516 51 0.0 0.0 0.00 0.00 0.00 83 1022.7
20260502054015 51 0.0 1.0 0.00 0.00 0.00 83 1022.8
20260502053516 51 0.0 0.0 0.00 0.00 0.00 83 1022.9
20260502053015 51 0.0 0.0 0.00 0.00 0.00 83 1022.9
20260502052515 52 0.0 0.0 0.00 0.00 0.00 82 1022.9
20260502052015 52 0.0 0.0 0.00 0.00 0.00 82 1023.0
20260502051515 52 0.0 1.0 0.00 0.00 0.00 82 1022.9
20260502051016 52 0.0 0.0 0.00 0.00 0.00 82 1023.0
20260502050515 52 0.0 0.0 0.00 0.00 0.00 81 1023.1
20260502050016 52 0.0 0.0 0.00 0.00 0.00 81 1023.2
20260502045516 52 0.0 1.0 0.00 0.00 0.00 81 1023.3
20260502045015 53 0.0 0.0 0.00 0.00 0.00 80 1023.3
20260502044515 53 0.0 1.0 0.00 0.00 0.00 80 1023.4
20260502044015 53 0.0 1.0 0.00 0.00 0.00 80 1023.4
20260502043515 53 0.0 1.0 0.00 0.00 0.00 80 1023.3
20260502043056 53 0.0 0.0 0.00 0.00 0.00 80 1023.4
20260502042515 53 0.0 1.0 0.00 0.00 0.00 79 1023.6
20260502042016 53 0.0 0.0 0.00 0.00 0.00 79 1023.6
20260502041516 53 0.0 1.0 0.00 0.00 0.00 79 1023.6
20260502041016 53 0.0 0.0 0.00 0.00 0.00 79 1023.5
20260502040516 53 0.0 0.0 0.00 0.00 0.00 78 1023.4
20260502040015 53 0.0 3.0 0.00 0.00 0.00 78 1023.3
20260502035516 53 0.0 2.0 0.00 0.00 0.00 78 1023.3
20260502035016 54 0.0 1.0 0.00 0.00 0.00 78 1023.4
20260502034516 54 0.0 2.0 0.00 0.00 0.00 78 1023.3
20260502034036 54 0.0 1.0 0.00 0.00 0.00 77 1023.4
20260502033516 54 0.0 1.0 0.00 0.00 0.00 76 1023.3
20260502033016 54 0.0 2.0 0.00 0.00 0.00 76 1023.3
20260502032516 54 0.0 2.0 0.00 0.00 0.00 76 1023.3
20260502032016 54 0.0 1.0 0.00 0.00 0.00 76 1023.2
20260502031516 54 0.0 1.0 0.00 0.00 0.00 76 1023.2
20260502031036 54 0.0 1.0 0.00 0.00 0.00 75 1023.1
20260502030516 55 0.0 1.0 0.00 0.00 0.00 75 1022.9
20260502030016 55 0.0 3.0 0.00 0.00 0.00 75 1023.0
20260502025516 55 0.0 2.0 0.00 0.00 0.00 74 1022.9
20260502025016 55 0.0 2.0 0.00 0.00 0.00 74 1022.8
20260502024516 55 0.0 3.0 0.00 0.00 0.00 73 1022.8
20260502024016 55 0.0 3.0 0.00 0.00 0.00 73 1022.9
20260502023516 56 135 1.0 4.0 0.00 0.00 0.00 72 1023.0
20260502023016 56 0.0 3.0 0.00 0.00 0.00 71 1023.0
20260502022516 56 0.0 2.0 0.00 0.00 0.00 71 1023.1
20260502022016 56 135 1.0 4.0 0.00 0.00 0.00 71 1023.1
20260502021516 56 0.0 0.0 0.00 0.00 0.00 71 1023.0
20260502021016 56 0.0 2.0 0.00 0.00 0.00 71 1023.0
20260502020516 56 0.0 1.0 0.00 0.00 0.00 70 1023.0
20260502020016 56 0.0 1.0 0.00 0.00 0.00 70 1023.0
20260502015536 56 0.0 1.0 0.00 0.00 0.00 70 1023.0
20260502015016 57 0.0 1.0 0.00 0.00 0.00 69 1023.1
20260502014516 57 0.0 2.0 0.00 0.00 0.00 68 1023.0
20260502014016 57 0.0 2.0 0.00 0.00 0.00 68 1023.0
20260502013516 57 135 1.0 3.0 0.00 0.00 0.00 67 1022.8
20260502013016 57 135 1.0 4.0 0.00 0.00 0.00 67 1022.7
20260502012516 56 135 1.0 3.0 0.00 0.00 0.00 67 1022.6
20260502012016 56 0.0 2.0 0.00 0.00 0.00 67 1022.6
20260502011516 56 0.0 3.0 0.00 0.00 0.00 68 1022.5
20260502011018 55 0.0 0.0 0.00 0.00 0.00 68 1022.4
20260502010516 55 0.0 1.0 0.00 0.00 0.00 68 1022.2
20260502010016 56 0.0 1.0 0.00 0.00 0.00 68 1022.3
20260502005516 56 0.0 1.0 0.00 0.00 0.00 67 1022.2
20260502005016 56 0.0 0.0 0.00 0.00 0.00 65 1022.0
20260502004516 57 0.0 0.0 0.00 0.00 0.00 64 1021.9
20260502004016 57 0.0 0.0 0.00 0.00 0.00 63 1021.6
20260502003516 57 0.0 0.0 0.00 0.00 0.00 62 1021.6
20260502003036 58 0.0 0.0 0.00 0.00 0.00 61 1021.5
20260502002516 58 0.0 0.0 0.00 0.00 0.00 60 1021.6
20260502002016 59 0.0 0.0 0.00 0.00 0.00 59 1021.5
20260502001516 59 0.0 0.0 0.00 0.00 0.00 58 1021.5
20260502001016 59 0.0 0.0 0.00 0.00 0.00 57 1021.6
20260502000519 60 0.0 1.0 0.00 0.00 0.00 56 1021.7
20260502000016 60 0.0 1.0 0.00 0.00 0.00 56 1021.6
20260501235516 60 0.0 1.0 0.00 0.00 0.00 55 1021.6
20260501235016 61 0.0 1.0 0.00 0.00 0.00 54 1021.5
20260501234516 61 0.0 2.0 0.00 0.00 0.00 53 1021.5
20260501234036 61 0.0 1.0 0.00 0.00 0.00 53 1021.4
20260501233516 62 0.0 1.0 0.00 0.00 0.00 51 1021.4
20260501233016 62 0.0 2.0 0.00 0.00 0.00 49 1021.3
20260501232516 62 0.0 2.0 0.00 0.00 0.00 49 1021.2
20260501232016 63 0.0 1.0 0.00 0.00 0.00 49 1021.3
20260501231516 63 135 1.0 3.0 0.00 0.00 0.00 48 1021.2
20260501231016 63 0.0 2.0 0.00 0.00 0.00 48 1021.3
20260501230516 63 0.0 2.0 0.00 0.00 0.00 47 1021.2
20260501230016 63 0.0 4.0 0.00 0.00 0.00 47 1021.3
20260501225516 64 0 1.0 5.0 0.00 0.00 0.00 47 1021.3
20260501225016 64 135 1.0 5.0 0.00 0.00 0.00 46 1021.4
20260501224536 64 113 1.0 6.0 0.00 0.00 0.00 45 1021.5
20260501224016 64 135 2.0 7.0 0.00 0.00 0.00 46 1021.5
20260501223516 64 0.0 2.0 0.00 0.00 0.00 49 1021.6
20260501223016 64 0.0 3.0 0.00 0.00 0.00 49 1021.6
20260501222516 64 0.0 2.0 0.00 0.00 0.00 48 1021.7
20260501222016 64 135 1.0 6.0 0.00 0.00 0.00 46 1021.6
20260501221516 64 113 1.0 6.0 0.00 0.00 0.00 47 1021.6
20260501221016 64 158 1.0 2.0 0.00 0.00 0.00 46 1021.6
20260501220516 64 113 1.0 4.0 0.00 0.00 0.00 44 1021.7
20260501220016 64 0.0 2.0 0.00 0.00 0.00 44 1021.7
20260501215516 65 135 1.0 4.0 0.00 0.00 0.00 45 1021.6
20260501215016 65 0.0 4.0 0.00 0.00 0.00 43 1021.7
20260501214521 65 135 1.0 4.0 0.00 0.00 0.00 40 1021.5
20260501214016 65 0 1.0 5.0 0.00 0.00 0.00 41 1021.6
20260501213516 65 135 1.0 4.0 0.00 0.00 0.00 42 1021.6
20260501213016 65 135 1.0 4.0 0.00 0.00 0.00 40 1021.5
20260501212556 65 113 1.0 6.0 0.00 0.00 0.00 40 1021.6
20260501212016 65 135 1.0 6.0 0.00 0.00 0.00 40 1021.6
20260501211516 65 158 1.0 2.0 0.00 0.00 0.00 43 1021.6
20260501211017 65 135 1.0 5.0 0.00 0.00 0.00 41 1021.7
20260501210516 65 158 2.0 5.0 0.00 0.00 0.00 43 1021.6
20260501210016 65 0.0 3.0 0.00 0.00 0.00 42 1021.7
20260501205536 65 158 2.0 9.0 0.00 0.00 0.00 40 1021.7
20260501205016 65 113 1.0 4.0 0.00 0.00 0.00 40 1021.6
20260501204516 65 135 1.0 6.0 0.00 0.00 0.00 41 1021.8
20260501204016 65 158 1.0 5.0 0.00 0.00 0.00 40 1022.0
20260501203536 65 158 1.0 8.0 0.00 0.00 0.00 42 1022.0
20260501203016 66 113 1.0 8.0 0.00 0.00 0.00 41 1021.9
20260501202516 66 135 1.0 3.0 0.00 0.00 0.00 42 1022.2
20260501202016 66 113 2.0 6.0 0.00 0.00 0.00 38 1022.3
20260501201536 66 135 2.0 7.0 0.00 0.00 0.00 40 1022.3
20260501201016 66 135 2.0 6.0 0.00 0.00 0.00 41 1022.4
20260501200516 65 135 1.0 4.0 0.00 0.00 0.00 38 1022.4
20260501200016 65 315 1.0 2.0 0.00 0.00 0.00 38 1022.5
20260501195516 65 113 1.0 5.0 0.00 0.00 0.00 41 1022.5
20260501195016 65 113 1.0 4.0 0.00 0.00 0.00 38 1022.8